This is the latest recevied weather packets stored in our database for station/object W6ORV. If no packets are shown the sender has not sent any weather packets the latest 10 day(s).
| Time | Temp. | Humidity | Pressure | Rain* | Wind** | Luminosity | Snow |
|---|---|---|---|---|---|---|---|
| 1778171267 | 23.89° C | 57% | 4302.7 hPa | 0 mm | - | 596 W/m² | - |
| 1778170963 | 22.22° C | 61% | 4302.5 hPa | 0 mm | - | 569 W/m² | - |
| 1778170661 | 20.56° C | 65% | 4302.5 hPa | 0 mm | - | 534 W/m² | - |
| 1778170357 | 20° C | 68% | 4302.6 hPa | 0 mm | - | 488 W/m² | - |
| 1778170053 | 19.44° C | 70% | 4302.6 hPa | 0 mm | - | 494 W/m² | - |
| 1778169749 | 18.89° C | 73% | 4302.7 hPa | 0 mm | - | 453 W/m² | - |
| 1778169446 | 18.33° C | 73% | 4302.8 hPa | 0 mm | - | 410 W/m² | - |
| 1778169142 | 17.78° C | 75% | 4302.8 hPa | 0 mm | - | 353 W/m² | - |
| 1778168839 | 17.22° C | 78% | 4302.8 hPa | 0 mm | - | 361 W/m² | - |
| 1778168536 | 16.67° C | 80% | 4302.9 hPa | 0 mm | - | 333 W/m² | - |
| 1778168232 | 16.11° C | 80% | 4303 hPa | 0 mm | - | 321 W/m² | - |
| 1778167929 | 15.56° C | 82% | 4302.7 hPa | 0 mm | - | 301 W/m² | - |
| 1778167626 | 15° C | 84% | 4302.9 hPa | 0 mm | - | 296 W/m² | - |
| 1778167321 | 14.44° C | 86% | 4303 hPa | 0 mm | - | 275 W/m² | - |
| 1778167018 | 13.33° C | 89% | 4303 hPa | 0 mm | - | 251 W/m² | - |
| 1778166714 | 13.33° C | 90% | 4303.1 hPa | 0 mm | - | 238 W/m² | - |
| 1778166411 | 12.78° C | 92% | 4303.1 hPa | 0 mm | - | 187 W/m² | - |
| 1778166108 | 12.22° C | 94% | 4303.1 hPa | 0 mm | - | 180 W/m² | - |
| 1778165804 | 11.67° C | 95% | 4303 hPa | 0 mm | - | 148 W/m² | - |
| 1778165501 | 11.11° C | 95% | 4303.2 hPa | 0 mm | - | 132 W/m² | - |
| 1778165197 | 10.56° C | 96% | 4303.1 hPa | 0 mm | - | 123 W/m² | - |
| 1778164896 | 10.56° C | 96% | 4303.2 hPa | 0 mm | - | 144 W/m² | - |
| 1778164592 | 10.56° C | 97% | 4303 hPa | 0 mm | - | 99 W/m² | - |
| 1778164289 | 10.56° C | 97% | 4303.1 hPa | 0 mm | - | 89 W/m² | - |
| 1778163985 | 10° C | 97% | 4303 hPa | 0 mm | - | 83 W/m² | - |
* Rain latest hour (hover to see other rain measurements)
** Current wind speed in m/s (hover to see current wind gust speed)